This demonstration page uses our WeatherBlox Daily Observations layout. Learn more.

Hourly Observations for May 10, 2017

Temp ( °F °C ) Dew Point ( °F °C ) Humidity (%) Winds ( mph kmh ) Pressure ( in mb ) Visibility ( mi km ) Precip ( " mm )
12:15 am 00:15 Partly Cloudy 59 15.1 46 8 63 63 E 13 20 29.85 1011 10 16.09344 0 0
12:35 am 00:35 Cloudy 59 15 47 8.1 64 64 E 12 19 29.85 1011 10 16.09344 0 0
12:55 am 00:55 Cloudy 59 14.8 46 7.7 63 63 E 10 17 29.88 1012 10 16.09344 0 0
1:15 am 01:15 Cloudy 55 12.8 48 8.9 77 77 SSE 9 15 29.91 1013 2.5 4.02336 0.09 2.286
1:35 am 01:35 Cloudy 55 12.5 49 9.4 82 82 SSE 5 7 29.97 1015 5 8.04672 0.16 4.064
1:55 am 01:55 Cloudy with Thunderstorms 54 12.1 49 9.6 85 85 E 12 19 29.94 1014 7 11.265408 0.22 5.588
2:15 am 02:15 Cloudy 54 12 49 9.7 86 86 E 9 15 29.91 1013 10 16.09344 0.02 0.508
2:35 am 02:35 Cloudy with Thunderstorms 54 12 50 9.9 87 87 ENE 8 13 29.91 1013 7 11.265408 0.05 1.27
2:55 am 02:55 Cloudy with Nearby Thunderstorms 53 11.7 50 10 89 89 ENE 5 7 29.91 1013 7 11.265408 0.1 2.54
3:15 am 03:15 Cloudy with Heavy Rain 53 11.5 50 9.8 89 89 E 9 15 29.91 1013 4 6.437376 0.09 2.286
3:35 am 03:35 Cloudy with Rain 52 11.3 50 10 92 92 ENE 15 24 29.88 1012 5 8.04672 0.17 4.318
3:55 am 03:55 Cloudy with Light Rain 52 11 49 9.7 92 92 ENE 20 31 29.83 1010 10 16.09344 0.18 4.572
4:15 am 04:15 Mostly Cloudy with Light Drizzle 52 11.1 49 9.6 91 91 ENE 15 24 29.83 1010 10 16.09344 0 0
4:35 am 04:35 Partly Cloudy 52 11 49 9.6 91 91 ENE 17 28 29.83 1010 10 16.09344 0 0
4:55 am 04:55 Partly Cloudy 51 10.7 49 9.5 92 92 E 12 19 29.83 1010 10 16.09344 0 0
5:15 am 05:15 Partly Cloudy 51 10.6 49 9.4 92 92 E 9 15 29.83 1010 10 16.09344 0 0
5:35 am 05:35 Mostly Cloudy 51 10.8 49 9.6 92 92 SSE 3 6 29.85 1011 10 16.09344 0 0
5:55 am 05:55 Cloudy 52 11.2 50 10 92 92 ESE 5 7 29.85 1011 10 16.09344 0 0
6:15 am 06:15 Cloudy 52 11.2 50 10.1 93 93 ESE 9 15 29.85 1011 7 11.265408 0 0
6:35 am 06:35 Cloudy with Mist and Fog 52 11.1 50 10.1 94 94 ESE 6 9 29.85 1011 5 8.04672 0 0
6:55 am 06:55 Cloudy with Mist and Fog 52 11 50 10.1 94 94 ESE 8 13 29.85 1011 1 1.609344 0 0
7:15 am 07:15 Cloudy with Mist and Fog 52 11.2 51 10.4 95 95 E 6 9 29.88 1012 2 3.218688 0 0
7:35 am 07:35 Cloudy with Mist and Fog 53 11.5 51 10.6 94 94 E 5 7 29.88 1012 4 6.437376 0 0
7:55 am 07:55 Cloudy with Mist and Fog 53 11.5 51 10.5 94 94 Calm 29.91 1013 5 8.04672 0 0
8:15 am 08:15 Cloudy with Mist and Fog 53 11.5 51 10.6 94 94 Calm 29.91 1013 5 8.04672 0 0
8:35 am 08:35 Cloudy with Mist and Fog 53 11.7 51 10.7 94 94 N 5 7 29.91 1013 5 8.04672 0 0
8:55 am 08:55 Cloudy with Mist and Fog 53 11.6 51 10.6 94 94 N 5 7 29.91 1013 5 8.04672 0 0
9:15 am 09:15 Cloudy with Mist and Fog 53 11.7 51 10.7 94 94 NNW 6 9 29.91 1013 5 8.04672 0 0
9:35 am 09:35 Cloudy with Mist and Fog 54 12 52 11 94 94 N 10 17 29.94 1014 5 8.04672 0 0
9:55 am 09:55 Cloudy with Mist and Fog 54 12.1 52 11 93 93 N 10 17 29.91 1013 5 8.04672 0 0
10:20 am 10:20 Cloudy 55 12.5 52 11 91 91 N 7 11 29.88 1012 7 11.265408 0 0
10:35 am 10:35 Cloudy 55 12.5 52 11.1 91 91 NNE 7 11 29.88 1012 10 16.09344 0 0
10:55 am 10:55 Cloudy 55 12.8 52 11.2 90 90 N 9 15 29.91 1013 10 16.09344 0 0
11:15 am 11:15 Cloudy 55 12.7 52 11 89 89 N 12 19 29.88 1012 10 16.09344 0 0
11:35 am 11:35 Cloudy 55 13 52 11 88 88 NNE 9 15 29.88 1012 10 16.09344 0 0
11:55 am 11:55 Cloudy 55 13 52 11 88 88 NNE 10 17 29.88 1012 10 16.09344 0 0
12:15 pm 12:15 Cloudy 58 14.2 53 11.6 84 84 NE 10 17 29.88 1012 10 16.09344 0 0
12:35 pm 12:35 Cloudy 57 14 52 11.3 84 84 ENE 7 11 29.91 1013 10 16.09344 0 0
12:55 pm 12:55 Cloudy 57 14.1 52 11.2 83 83 NNE 9 15 29.91 1013 10 16.09344 0 0
1:15 pm 13:15 Cloudy 57 14 52 11.2 83 83 NNE 7 11 29.91 1013 10 16.09344 0 0
1:35 pm 13:35 Cloudy 58 14.2 53 11.4 83 83 NNE 8 13 29.91 1013 10 16.09344 0 0
1:55 pm 13:55 Cloudy 58 14.3 53 11.4 83 83 NNE 8 13 29.94 1014 10 16.09344 0 0
2:15 pm 14:15 Cloudy 58 14.3 52 11.2 82 82 NNE 9 15 29.94 1014 10 16.09344 0 0
2:35 pm 14:35 Cloudy 59 15 54 12 82 82 NNE 10 17 29.91 1013 10 16.09344 0 0
2:55 pm 14:55 Cloudy 59 15 53 11.7 81 81 NNE 12 19 29.91 1013 10 16.09344 0 0
3:15 pm 15:15 Cloudy 60 15.6 54 12 79 79 NNE 13 20 29.91 1013 10 16.09344 0 0
3:35 pm 15:35 Cloudy 60 15.5 53 11.9 79 79 NNE 13 20 29.91 1013 10 16.09344 0 0
3:55 pm 15:55 Cloudy 59 15.1 53 11.9 81 81 N 12 19 29.91 1013 10 16.09344 0 0
4:15 pm 16:15 Cloudy 59 14.8 53 11.5 81 81 NNE 13 20 29.91 1013 10 16.09344 0 0
4:35 pm 16:35 Cloudy 58 14.3 52 11.3 82 82 NE 15 24 29.94 1014 10 16.09344 0 0
4:55 pm 16:55 Cloudy 58 14.3 52 11.3 82 82 NNE 9 15 29.94 1014 10 16.09344 0 0
5:15 pm 17:15 Cloudy 58 14.7 52 11.3 80 80 NNE 10 17 29.94 1014 10 16.09344 0 0
5:35 pm 17:35 Cloudy 58 14.4 52 11 80 80 N 14 22 29.94 1014 10 16.09344 0 0
5:55 pm 17:55 Cloudy 57 14 52 11 82 82 NNE 14 22 29.94 1014 10 16.09344 0 0
6:15 pm 18:15 Cloudy 58 14.5 52 11.1 80 80 N 15 24 29.94 1014 10 16.09344 0 0
6:35 pm 18:35 Cloudy with Nearby Thunderstorms 57 14.1 52 11.1 82 82 N 9 15 29.97 1015 10 16.09344 0 0
6:55 pm 18:55 Cloudy 57 14 52 11 82 82 NNE 10 17 29.94 1014 10 16.09344 0 0
7:15 pm 19:15 Cloudy 57 13.7 52 11 84 84 NNE 12 19 29.97 1015 10 16.09344 0 0
7:35 pm 19:35 Cloudy 57 13.8 51 10.6 81 81 NNE 12 19 29.97 1015 10 16.09344 0 0
7:55 pm 19:55 Cloudy 57 13.8 51 10.4 80 80 NNE 17 28 29.94 1014 10 16.09344 0 0
8:15 pm 20:15 Cloudy 57 13.9 51 10.4 80 80 NNE 16 26 29.94 1014 10 16.09344 0 0
8:35 pm 20:35 Partly Cloudy 56 13.2 50 10.1 82 82 NNE 14 22 29.94 1014 10 16.09344 0 0
8:55 pm 20:55 Mostly Cloudy 55 13 50 10 82 82 N 5 7 30 1016 10 16.09344 0 0
9:15 pm 21:15 Cloudy 55 13 50 10 82 82 NNE 8 13 30.03 1017 10 16.09344 0 0
9:35 pm 21:35 Cloudy 55 13 50 10 82 82 NE 8 13 30.03 1017 10 16.09344 0 0
9:55 pm 21:55 Cloudy 56 13.2 50 9.8 80 80 NNE 10 17 30.03 1017 10 16.09344 0 0
10:15 pm 22:15 Cloudy 56 13.2 49 9.5 78 78 NNE 10 17 30.03 1017 10 16.09344 0 0
10:35 pm 22:35 Cloudy 56 13.1 49 9.6 79 79 NNE 9 15 30.03 1017 10 16.09344 0 0
10:55 pm 22:55 Cloudy 55 13 49 9.5 79 79 NNE 9 15 30.03 1017 10 16.09344 0 0
11:15 pm 23:15 Cloudy 55 13 49 9.5 79 79 NNE 12 19 30.03 1017 10 16.09344 0 0
11:35 pm 23:35 Cloudy 55 13 49 9.4 79 79 NNE 10 17 30.03 1017 10 16.09344 0 0
11:55 pm 23:55 Cloudy 55 13 49 9.3 78 78 NNE 10 17 30.03 1017 10 16.09344 0 0

Powered by AerisWeather